EW2137 Weather Reports


Display with metric or nautical units.
time (UTC)temp
F
wind
direction
speed
MPH
gust
MPH
rain 1hr
in
rain 24hr
in
rain mn
in
humidity
%
barometer
mb
20260904013030 59 253 12.0 15.0 0.00 0.04 0.00 66 1006.4
20260904011530 60 229 12.0 18.0 0.00 0.04 0.00 62 1006.3
20260904010030 64 228 14.0 22.0 0.00 0.04 0.00 47 1006.2
20260904004533 65 166 5.0 9.0 0.00 0.05 0.00 40 1006.1
20260904003032 66 161 6.0 10.0 0.00 0.05 0.00 39 1006.0
20260904001526 66 165 5.0 13.0 0.00 0.05 0.00 39 1006.1
20260904000024 66 161 5.0 12.0 0.00 0.05 0.00 39 1006.1
20260903234522 65 158 8.0 11.0 0.00 0.08 0.00 40 1006.4
20260903233022 65 189 8.0 13.0 0.00 0.08 0.00 38 1006.5
20260903231524 65 149 7.0 13.0 0.00 0.08 0.00 38 1006.5
20260903230032 65 166 9.0 13.0 0.00 0.08 0.00 39 1006.9
20260903224520 65 186 10.0 14.0 0.00 0.10 0.00 40 1007.1
20260903223022 64 144 6.0 12.0 0.00 0.10 0.00 40 1007.2
20260903221516 65 177 9.0 16.0 0.00 0.10 0.00 39 1007.3
20260903220021 64 196 2.0 7.0 0.00 0.10 0.00 41 1007.5
20260903214519 64 207 2.0 8.0 0.00 0.15 0.00 40 1007.5
20260903213011 63 238 4.0 8.0 0.00 0.15 0.00 41 1007.7
20260903211524 63 255 5.0 10.0 0.00 0.15 0.00 42 1007.6
20260903210015 62 219 7.0 13.0 0.00 0.15 0.00 42 1007.7
20260903204507 62 123 0.0 8.0 0.00 0.15 0.00 45 1007.7
20260903203006 61 271 2.0 8.0 0.00 0.15 0.00 51 1007.9
20260903201508 61 297 2.0 9.0 0.00 0.15 0.00 53 1008.1
20260903200008 61 265 6.0 10.0 0.00 0.15 0.00 52 1008.4
20260903194601 60 227 5.0 9.0 0.00 0.15 0.00 51 1008.5
20260903193057 60 206 3.0 5.0 0.00 0.15 0.00 61 1008.7
20260903191557 60 191 0.0 7.0 0.00 0.15 0.00 59 1008.7
20260903190057 59 285 2.0 7.0 0.00 0.15 0.00 60 1008.8
20260903184554 59 134 2.0 9.0 0.00 0.15 0.00 58 1008.9
20260903183053 58 257 3.0 9.0 0.00 0.15 0.00 59 1009.0
20260903181553 58 208 4.0 8.0 0.00 0.15 0.00 59 1008.9
20260903180051 58 226 5.0 9.0 0.00 0.15 0.00 62 1008.7
20260903174548 58 219 6.0 10.0 0.00 0.15 0.00 59 1008.6
20260903173046 57 156 4.0 7.0 0.00 0.15 0.00 67 1008.6
20260903171544 57 190 6.0 9.0 0.00 0.15 0.00 67 1008.6
20260903170052 56 172 6.0 9.0 0.00 0.15 0.00 69 1008.7
20260903164542 56 192 5.0 8.0 0.00 0.15 0.00 68 1008.9
20260903163038 55 245 0.0 4.0 0.00 0.15 0.00 70 1008.9
20260903161537 55 194 2.0 3.0 0.00 0.15 0.00 69 1008.8
20260903160036 54 200 2.0 6.0 0.00 0.15 0.00 74 1008.8
20260903154542 53 190 5.0 7.0 0.00 0.15 0.00 72 1009.0
20260903153029 52 172 8.0 11.0 0.00 0.15 0.00 78 1009.2
20260903151527 51 152 6.0 10.0 0.00 0.15 0.00 78 1009.0
20260903150027 52 200 2.0 4.0 0.00 0.15 0.00 80 1008.9
20260903144526 50 236 3.0 6.0 0.00 0.15 0.00 80 1009.0
20260903143027 48 208 6.0 7.0 0.00 0.15 0.00 83 1009.0
20260903141535 48 175 7.0 9.0 0.00 0.15 0.00 80 1008.8
20260903140023 47 221 3.0 7.0 0.00 0.15 0.00 81 1008.8
20260903134523 47 195 3.0 9.0 0.00 0.15 0.00 79 1008.9
20260903133023 44 168 6.0 10.0 0.00 0.15 0.00 86 1008.7
20260903131518 45 181 4.0 6.0 0.00 0.15 0.00 84 1008.5
20260903130018 46 208 4.0 7.0 0.00 0.15 0.00 83 1008.5
20260903124518 44 213 6.0 7.0 0.00 0.15 0.00 85 1008.4
20260903123016 45 208 6.0 7.0 0.00 0.15 0.00 84 1008.4
20260903121515 47 229 4.0 8.0 0.00 0.15 0.00 80 1008.2
20260903120015 46 220 8.0 9.0 0.00 0.15 0.00 82 1008.3
20260903114514 48 192 9.0 12.0 0.00 0.15 0.00 76 1008.3
20260903113011 45 169 2.0 8.0 0.00 0.15 0.00 83 1008.3
20260903111508 45 206 5.0 7.0 0.00 0.15 0.00 82 1008.1
20260903110008 46 214 5.0 7.0 0.00 0.15 0.00 81 1008.1
20260903104504 47 220 5.0 7.0 0.00 0.15 0.00 82 1007.7
20260903103002 47 212 6.0 8.0 0.00 0.15 0.00 84 1008.0
20260903101502 48 223 4.0 8.0 0.00 0.15 0.00 84 1008.0
20260903100100 48 216 7.0 8.0 0.00 0.15 0.00 84 1007.8
20260903094600 47 219 6.0 7.0 0.00 0.15 0.00 88 1007.6
20260903093104 47 209 6.0 8.0 0.00 0.15 0.00 89 1007.7
20260903091554 48 212 5.0 7.0 0.00 0.15 0.00 87 1007.6
20260903090051 49 211 3.0 6.0 0.00 0.15 0.00 87 1007.6
20260903084550 50 215 6.0 9.0 0.00 0.15 0.00 87 1007.4
20260903083050 50 192 6.0 7.0 0.00 0.15 0.00 89 1007.4
20260903081558 51 211 6.0 8.0 0.00 0.15 0.00 89 1007.5
20260903080041 51 217 5.0 6.0 0.00 0.15 0.00 89 1007.2
20260903074542 52 242 5.0 10.0 0.00 0.15 0.00 88 1007.1
20260903073108 52 221 5.0 8.0 0.00 0.15 0.00 89 1007.0
20260903071536 52 220 6.0 9.0 0.00 0.15 0.00 90 1006.7
20260903070033 52 221 7.0 9.0 0.00 0.15 0.00 90 1006.6
20260903064535 53 216 8.0 11.0 0.00 0.15 0.15 89 1006.5
20260903063039 53 232 8.0 11.0 0.00 0.15 0.15 88 1006.3
20260903061533 54 226 8.0 11.0 0.00 0.15 0.15 87 1006.1
20260903060031 53 220 8.0 12.0 0.00 0.15 0.15 89 1006.5
20260903054530 54 227 8.0 12.0 0.00 0.15 0.15 90 1006.5
20260903053035 54 193 5.0 7.0 0.00 0.15 0.15 91 1006.6
20260903051530 54 219 4.0 7.0 0.00 0.15 0.15 90 1006.4
20260903050040 54 224 5.0 10.0 0.00 0.15 0.15 91 1006.4
20260903044529 53 231 6.0 9.0 0.00 0.15 0.15 91 1006.5
20260903043028 53 222 5.0 11.0 0.00 0.15 0.15 89 1006.3
20260903041527 53 233 7.0 13.0 0.00 0.15 0.15 86 1006.2
20260903040027 55 248 12.0 18.0 0.01 0.15 0.15 86 1006.1
20260903034533 56 221 19.0 24.0 0.01 0.15 0.15 80 1005.8
20260903033026 56 176 13.0 17.0 0.01 0.15 0.15 79 1005.0
20260903031533 57 167 15.0 21.0 0.01 0.15 0.15 79 1005.0
20260903030025 57 171 16.0 22.0 0.00 0.14 0.14 78 1004.8
20260903024524 58 166 11.0 18.0 0.01 0.14 0.14 80 1004.9
20260903023030 58 167 10.0 13.0 0.02 0.14 0.14 81 1004.8
20260903021524 58 171 7.0 13.0 0.02 0.14 0.14 82 1004.8
20260903020052 58 167 9.0 14.0 0.03 0.14 0.14 81 1005.0
20260903014522 58 169 6.0 10.0 0.02 0.13 0.13 82 1005.0